Temp
26 27 26 26 27 26 26 26 27 27 26 26 26 24 24 23 23 24 26 25 24 23 23 23 23 23 23 23 24 24 24 25 25 25 25 25 25 25 25 25 25 25 26 26 26 25 25 25 24 24 23 23 23 23 23 23 23 22 22 22 22 22 23 22 22 22 21 21 21 21 21 21 22 22 22 23 23 23 23 23 23 23 23 23 23 23
26 26 26 27 27 26 26 26 26 27 27 27 26 25 24 23 24 25 26 24 24 24 22 22 23 23 23 23 23 24 24 25 25 25 25 25 25 25 25 25 25 26 26 26 25 25 25 25 24 24 23 23 23 23 23 23 23 23 23 23 23 23 23 23 23 22 22 22 22 21 22 22 22 22 22 23 23 23 23 23 23 23 23 23 23 23
26 25 27 27 25 25 27 26 26 27 27 27 26 25 23 24 24 24 24 24 23 24 22 21 23 23 23 23 23 23 24 25 25 25 25 25 25 25 25 25 25 26 26 26 25 25 25 25 24 24 23 23 23 23 23 23 24 23 22 23 23 23 23 23 23 23 23 22 22 22 23 23 22 22 23 23 23 23 23 23 23 23 23 23 23 23
24 26 28 26 25 26 27 26 27 27 26 27 26 24 23 24 24 23 23 23 23 23 22 21 22 22 23 23 23 23 23 24 25 25 25 25 25 25 25 25 25 26 26 25 25 25 25 25 24 24 23 23 23 23 22 23 24 23 23 23 23 23 23 23 23 23 23 23 23 23 23 23 23 23 23 22 23 22 23 23 23 23 23 23 23 23
25 27 27 25 25 27 27 26 27 26 25 26 26 25 24 25 24 24 23 22 22 22 22 22 21 21 23 23 23 24 23 23 24 24 24 25 25 25 25 25 26 26 26 26 25 25 25 25 24 24 24 23 23 23 23 23 24 24 24 24 24 24 23 23 23 23 23 23 23 23 22 22 22 22 22 22 22 22 22 23 23 23 23 23 23 23
27 27 26 26 27 26 26 26 26 27 25 25 26 26 26 26 25 24 23 22 22 21 22 23 21 21 23 23 23 24 23 23 23 24 24 24 24 25 25 25 25 26 26 26 26 25 25 25 24 24 24 23 23 23 23 24 24 24 24 24 24 24 23 23 23 23 23 23 23 23 22 22 22 22 22 22 23 23 23 23 23 23 23 23 23 23
27 27 26 27 27 26 26 26 26 27 25 23 27 28 27 28 26 23 23 22 21 21 23 24 22 21 22 22 23 23 23 23 23 24 24 24 24 24 25 25 25 26 26 26 26 25 25 25 24 24 24 24 24 23 23 24 24 24 24 24 24 24 24 23 23 23 23 23 23 23 23 23 22 22 23 23 23 23 23 23 23 23 23 23 23 23
27 27 27 27 27 26 25 26 26 27 25 24 28 30 29 28 25 23 23 23 22 22 22 23 23 21 21 22 24 24 23 24 24 24 24 24 24 24 25 26 26 26 26 26 25 25 25 25 25 24 24 24 24 24 23 23 23 24 24 24 24 24 24 24 23 23 23 23 23 23 23 23 23 23 24 24 24 23 23 23 23 23 23 23 23 23
27 28 28 27 26 25 26 27 27 27 27 27 28 28 27 26 25 23 23 22 22 22 21 22 23 21 21 22 24 24 23 23 24 24 24 24 23 24 25 26 26 26 26 26 26 25 25 25 25 25 25 25 24 24 24 24 24 24 24 24 24 24 24 24 24 24 23 23 23 23 23 23 24 24 24 24 24 24 24 23 23 24 24 24 23 23
27 27 28 28 27 27 28 28 27 27 28 28 27 25 24 24 22 22 21 21 21 21 21 21 22 21 21 22 22 23 23 24 25 25 25 25 24 24 24 25 26 26 26 26 26 25 25 25 25 25 25 25 25 25 24 24 24 23 24 24 24 24 24 24 24 24 24 23 23 23 24 24 24 24 24 24 24 24 24 24 24 24 24 24 24 24
27 27 27 27 28 28 29 28 26 27 29 28 26 24 23 22 22 22 21 21 21 21 21 21 22 22 21 22 22 22 24 25 26 26 26 25 24 24 24 25 25 26 26 26 26 25 25 26 26 25 25 25 25 25 24 24 24 23 23 24 24 24 24 24 24 24 24 24 23 23 24 24 24 24 24 24 24 24 24 24 24 24 24 24 24 24
27 27 27 27 28 27 28 28 26 26 28 28 27 25 23 22 22 22 21 21 21 21 21 22 22 22 21 22 23 23 25 26 26 26 26 26 25 24 24 24 25 26 26 26 26 25 25 25 25 25 25 25 25 25 24 24 24 23 23 23 23 23 24 24 24 24 24 24 24 24 24 24 24 25 24 24 24 24 25 24 24 24 24 24 24 24
27 28 27 27 28 27 27 28 27 26 27 28 26 25 22 21 21 21 20 21 21 21 22 22 22 21 21 23 25 25 26 26 26 27 27 27 26 25 25 24 25 25 26 26 25 25 25 25 25 25 25 25 25 24 24 24 24 24 23 23 23 23 24 24 24 24 24 24 24 24 24 24 24 25 25 25 25 25 25 25 25 24 24 24 24 23
25 27 27 28 28 27 27 27 26 26 27 26 25 23 22 21 21 21 20 20 21 21 22 22 22 21 21 24 25 25 25 26 26 27 27 27 27 26 25 25 25 25 26 26 25 26 25 25 25 25 25 25 25 25 24 24 24 24 23 23 23 23 24 24 24 24 24 24 24 24 24 24 24 24 25 25 25 25 25 25 25 25 24 24 24 24
22 23 26 27 27 27 27 27 25 27 27 26 27 25 23 22 21 21 21 21 21 21 21 22 22 21 22 24 24 24 24 25 25 26 27 27 27 27 25 25 25 25 25 26 26 26 25 25 25 25 25 25 25 25 24 24 24 24 23 23 23 23 23 24 24 24 24 24 24 24 24 24 24 24 24 25 25 25 25 25 25 25 25 24 24 24
21 22 26 27 26 27 27 26 26 27 27 26 27 26 23 23 23 21 21 21 21 21 21 21 22 23 24 24 24 24 24 23 24 26 27 27 27 26 25 25 25 25 25 25 26 26 26 25 25 25 25 25 25 25 25 24 24 24 24 23 23 23 24 24 24 24 25 24 24 25 25 25 24 24 24 25 25 25 25 25 25 25 25 25 25 25
21 22 26 27 27 28 27 26 27 26 25 25 25 24 24 26 25 22 21 22 21 21 21 21 21 23 24 24 24 24 23 23 23 24 26 26 27 26 25 25 25 25 25 25 26 26 26 25 25 25 25 25 25 25 25 25 24 24 24 24 23 23 23 24 24 24 25 25 24 25 25 25 25 24 25 25 25 25 25 25 25 25 25 25 25 25
22 22 25 26 27 28 26 26 27 26 26 26 24 24 25 26 26 23 21 21 21 21 21 21 21 21 22 22 24 24 23 23 22 22 24 26 26 26 26 26 25 25 25 25 26 26 26 25 25 25 25 25 25 25 25 25 25 25 24 24 24 23 23 24 24 24 25 25 25 25 25 25 25 25 25 25 25 25 25 25 25 25 25 25 25 25
23 22 24 25 25 27 27 26 26 26 27 27 25 26 25 23 23 22 21 21 21 21 21 21 21 21 21 21 22 23 23 22 22 22 23 25 25 26 26 26 26 25 25 25 25 26 25 25 25 25 25 25 25 25 25 25 25 25 24 24 24 24 24 25 24 24 25 25 25 25 25 25 25 25 25 25 25 25 25 25 25 25 25 25 25 25
24 22 23 25 25 25 26 25 23 24 26 27 26 26 25 23 22 22 22 22 21 21 21 21 21 21 21 21 21 22 22 22 22 22 22 23 23 24 24 25 25 25 25 25 25 26 25 25 25 25 25 25 25 25 25 25 25 25 24 24 24 24 24 24 24 24 24 24 24 24 25 25 25 25 25 25 25 25 25 25 25 25 25 25 25 25
24 22 21 24 25 24 24 24 23 22 24 25 24 23 23 23 23 22 23 23 22 21 21 21 21 21 21 21 21 21 22 21 21 22 21 21 21 21 22 23 23 22 23 23 24 25 25 24 25 25 25 25 25 25 25 25 25 25 24 24 24 24 24 24 24 24 24 24 24 24 24 24 24 24 25 25 24 24 24 25 25 25 25 25 25 25
24 23 22 22 23 22 23 24 24 23 23 24 24 22 22 22 22 22 22 22 22 22 21 21 21 21 21 21 21 21 21 21 21 21 21 21 21 20 20 21 22 22 22 22 23 23 22 22 22 24 24 24 25 25 25 25 25 24 24 24 24 24 24 24 24 24 24 24 24 24 24 24 24 24 24 24 24 24 24 24 25 25 25 25 25 25
24 24 22 22 22 22 23 24 23 23 24 25 25 23 23 23 21 21 21 22 22 21 21 21 21 21 21 21 21 21 21 21 20 20 20 20 20 20 20 20 21 21 21 21 22 21 20 20 21 22 24 24 24 24 24 24 24 24 24 24 24 24 24 24 24 24 24 24 24 24 24 24 24 24 24 24 24 24 24 24 25 25 25 25 25 25
24 23 22 21 21 23 24 24 24 24 24 25 24 24 23 22 21 21 21 22 21 21 21 21 21 21 21 21 21 21 21 21 20 20 20 20 20 20 20 20 20 21 20 21 22 21 20 20 21 22 23 23 23 24 24 24 24 24 24 24 23 24 24 24 24 24 24 24 24 24 24 24 24 24 24 24 24 24 24 24 25 25 25 25 25 25
24 22 21 21 21 22 23 23 23 24 24 23 23 23 22 21 21 21 21 22 21 20 20 21 21 20 21 21 21 21 21 21 21 20 20 20 19 20 20 20 20 20 20 21 21 22 21 21 21 22 23 23 23 24 24 24 24 24 24 23 23 23 23 23 23 23 23 23 24 23 23 23 23 23 24 24 24 24 24 25 25 25 25 25 25 25
24 22 22 21 20 20 21 21 22 22 23 23 23 22 22 21 20 20 21 21 21 20 20 21 21 20 21 22 21 21 21 21 21 20 20 19 19 20 20 20 20 20 20 20 20 21 22 21 20 21 22 22 23 23 23 24 24 24 24 24 24 24 23 23 23 23 23 23 23 23 23 23 23 23 24 24 24 24 24 25 25 25 25 25 25 25
24 23 23 22 21 21 21 22 22 22 22 22 22 22 21 21 21 20 21 21 20 20 20 20 20 20 21 21 21 20 20 20 20 20 20 20 20 20 20 20 20 19 19 19 20 20 21 21 21 20 21 22 23 23 23 23 23 24 23 24 24 24 23 23 23 23 23 23 23 23 23 23 23 23 23 24 24 24 24 25 25 25 25 25 25 25
25 22 22 23 22 22 23 23 23 23 22 21 21 22 21 21 21 20 20 20 20 20 20 20 21 21 20 20 21 20 20 20 20 20 20 20 20 20 20 20 20 19 19 19 19 19 20 20 20 20 20 21 22 22 23 23 23 23 23 23 23 23 23 23 23 23 23 23 23 23 23 23 23 23 23 24 24 24 24 24 25 25 25 25 25 25
25 23 22 23 23 22 23 23 23 23 22 21 21 22 21 21 21 20 19 19 20 20 20 20 20 20 20 20 20 20 20 20 20 20 20 20 20 20 20 20 20 20 19 19 19 19 19 19 19 19 20 20 21 21 21 22 22 23 23 23 23 23 23 23 23 23 23 23 22 23 23 23 23 23 23 23 24 24 24 24 24 24 24 25 25 25
23 23 22 22 23 22 22 22 22 22 21 21 21 21 21 21 21 20 19 19 19 19 20 20 20 20 20 20 20 19 19 20 20 20 20 20 20 20 20 20 20 19 19 19 19 19 19 19 19 19 19 20 20 20 20 21 21 22 22 22 22 22 23 23 23 23 23 23 23 23 23 23 23 23 23 23 24 24 24 24 24 24 24 24 25 25
23 23 22 22 22 21 21 22 22 21 21 21 20 20 21 21 21 20 20 19 20 19 19 19 19 20 19 19 19 19 19 19 19 20 20 20 19 19 19 19 19 19 19 19 19 19 19 19 19 19 19 19 19 20 20 20 21 21 21 21 21 22 22 23 23 23 22 23 23 23 22 22 23 23 23 23 24 24 24 24 24 24 24 24 24 24
24 22 22 23 22 20 21 21 21 21 21 21 20 20 20 21 21 20 20 19 20 20 19 18 19 20 19 19 19 19 19 18 18 18 19 19 19 19 19 19 18 18 18 18 19 19 19 19 18 19 19 18 19 19 20 20 20 21 21 21 21 22 21 21 22 22 22 22 22 22 22 21 21 23 23 23 23 23 24 24 23 23 23 23 23 24
24 24 23 22 21 20 20 20 20 21 21 20 20 20 19 20 20 20 20 19 19 19 19 19 19 19 19 19 19 19 18 18 17 17 17 18 18 18 18 18 18 17 17 17 18 18 18 18 18 18 18 18 18 18 19 19 20 20 21 21 21 21 21 20 20 21 21 21 21 22 21 20 20 21 22 23 23 23 23 23 23 23 23 23 23 23
23 24 23 21 21 20 20 20 21 20 20 20 20 19 19 20 20 21 21 19 19 19 19 19 19 19 19 19 19 18 17 17 17 16 17 17 17 17 17 17 17 17 17 17 17 17 17 17 17 17 17 17 17 18 18 19 19 20 20 20 20 20 20 20 20 20 20 20 20 20 21 21 21 20 20 21 22 22 23 23 23 23 23 23 24 24
24 24 22 21 21 20 19 20 20 20 20 20 19 19 19 19 19 20 20 20 20 19 18 19 19 19 19 18 18 17 17 16 16 16 17 16 16 17 17 16 16 16 16 16 16 16 16 16 17 16 16 16 17 17 17 18 18 19 19 19 19 19 19 19 19 19 19 19 19 20 20 21 21 20 19 19 20 20 21 23 23 23 23 23 24 24
25 24 22 21 20 20 20 20 20 19 19 20 20 20 20 20 20 20 21 21 21 20 19 18 19 19 19 18 17 17 17 17 17 17 16 16 16 16 16 16 17 16 16 16 16 16 16 16 16 16 16 16 16 17 17 17 18 18 18 19 19 19 19 19 19 19 19 19 19 19 19 19 19 19 19 19 19 19 20 21 22 21 21 22 22 22
24 24 23 21 19 19 19 19 19 19 19 20 20 21 20 20 21 21 21 22 22 20 19 18 18 18 18 17 17 17 17 17 17 17 16 16 16 16 16 16 17 17 17 16 16 16 16 16 16 16 16 16 16 16 16 17 17 17 17 18 18 18 19 19 19 19 19 19 19 19 19 19 19 19 19 19 19 19 20 21 21 21 21 22 22 22
22 24 23 21 19 18 19 19 18 19 19 20 21 21 21 21 21 20 20 21 22 21 20 19 18 18 18 17 17 17 17 18 17 17 17 17 16 17 16 16 16 17 16 16 16 16 16 16 16 16 16 16 16 16 16 16 17 17 17 16 16 17 17 18 18 18 18 19 19 19 19 19 19 19 19 19 19 19 19 20 20 20 21 21 22 22
22 22 23 22 20 19 19 19 19 19 20 20 21 22 21 20 20 20 20 21 22 22 20 19 18 18 18 18 17 17 17 18 17 16 17 17 16 16 16 16 16 16 16 16 16 16 16 16 16 16 16 16 16 16 16 16 17 16 16 16 16 16 16 16 17 18 18 18 18 18 19 19 19 19 19 19 19 18 18 19 19 19 20 21 21 21
22 22 22 21 20 19 20 20 19 20 20 20 21 22 21 20 20 21 20 20 21 20 20 20 19 18 18 18 17 17 18 18 17 17 17 16 16 16 16 15 15 15 16 16 16 16 16 16 16 16 16 15 16 16 16 17 17 16 15 16 16 16 15 15 16 17 17 18 18 18 18 18 19 19 19 19 18 18 18 18 19 19 19 20 20 21
22 21 20 20 20 20 20 20 19 20 20 21 21 21 20 20 20 20 20 20 19 19 19 19 19 17 17 17 17 17 18 17 17 17 16 16 16 16 15 15 15 15 15 16 16 16 16 16 16 16 15 15 16 16 17 17 17 16 16 16 16 15 16 16 16 17 17 17 17 18 18 18 18 18 18 19 18 18 18 19 19 19 19 19 19 20
21 20 19 19 19 19 19 20 20 20 20 20 20 19 19 20 21 20 19 18 18 19 19 18 18 17 16 16 16 17 16 15 15 16 16 16 16 15 14 15 15 15 15 16 16 16 16 16 16 16 16 16 16 17 17 17 17 16 16 16 16 16 16 17 17 17 17 17 17 17 17 18 18 18 18 18 18 18 19 19 19 19 19 19 19 19
21 21 20 19 19 18 19 19 20 20 20 20 20 20 20 21 21 20 19 17 18 19 19 18 16 16 15 15 15 15 14 14 15 16 16 15 15 14 14 14 14 14 15 15 15 16 16 16 16 16 16 16 16 16 17 17 16 16 16 16 16 17 17 18 18 18 18 18 17 17 17 17 17 18 18 18 18 18 18 18 19 19 19 19 19 19
21 21 21 20 19 19 20 20 20 21 20 19 20 21 21 20 20 19 19 18 18 18 18 17 16 14 14 15 14 14 15 15 15 16 15 15 15 13 13 14 14 14 14 15 15 16 16 16 16 16 16 16 16 16 16 16 16 16 16 15 16 17 18 18 18 18 18 18 18 17 17 17 17 17 17 18 18 18 18 18 18 18 18 18 18 19
21 21 21 21 19 19 20 20 20 20 18 18 19 20 20 19 18 18 19 20 19 18 18 18 16 14 14 14 14 15 15 15 15 15 15 15 14 13 13 14 14 14 14 15 15 16 16 16 16 16 16 16 16 16 16 16 16 16 16 16 17 17 17 18 18 18 17 17 17 17 18 18 18 18 18 18 18 18 18 18 18 17 17 17 17 17
19 18 20 21 19 18 19 19 19 19 18 18 18 18 18 18 18 18 19 20 19 18 18 17 16 14 15 15 15 15 15 15 15 15 15 15 14 12 13 14 14 15 15 15 15 15 16 16 16 16 16 15 16 16 16 16 16 16 16 16 16 17 17 17 18 17 17 17 17 17 17 17 17 18 18 18 18 18 18 18 17 16 16 16 17 17
18 18 20 21 20 19 20 20 19 19 19 18 18 18 18 18 18 18 19 19 18 18 18 17 15 15 15 15 16 16 15 15 15 15 15 15 14 12 13 14 15 15 15 15 15 15 15 15 15 15 15 15 15 15 15 16 16 16 16 16 16 17 17 17 17 17 17 17 17 17 17 17 17 17 18 18 17 17 17 17 17 16 16 16 16 16
20 20 20 20 19 19 20 19 18 18 19 18 18 19 19 19 19 18 18 18 17 17 16 15 15 16 16 16 17 16 15 15 15 15 15 15 13 12 14 15 15 16 16 16 16 16 16 16 15 15 15 15 15 15 15 15 15 15 16 16 16 16 17 17 17 17 17 17 17 17 17 17 17 17 17 17 17 17 16 16 16 16 15 15 15 15
20 21 20 19 19 19 18 18 18 19 19 19 19 19 19 19 19 18 17 17 17 16 16 15 15 16 16 16 16 16 17 16 15 15 16 15 13 13 14 15 16 16 16 16 16 16 16 16 16 16 16 15 15 15 15 15 15 15 15 16 16 16 16 16 16 16 16 16 17 17 17 17 17 17 17 17 17 16 16 15 15 15 15 15 15 15
20 20 19 18 20 20 20 20 19 20 21 20 20 20 18 17 18 19 18 18 18 17 17 17 15 15 15 14 14 16 18 17 14 13 14 14 13 14 15 16 16 16 16 16 16 16 16 16 16 16 16 16 16 15 15 15 15 15 15 15 15 16 16 16 16 16 16 16 16 16 16 16 16 16 16 16 16 16 16 15 15 15 15 15 15 15
21 21 19 20 22 22 22 20 19 21 23 21 20 20 19 16 18 20 19 19 19 17 16 18 17 16 16 15 14 15 17 16 14 13 13 13 14 15 16 16 16 16 16 16 17 17 16 16 16 16 16 16 16 16 16 16 15 15 15 15 15 15 15 15 16 16 16 16 16 15 16 16 16 16 16 16 16 16 16 15 15 15 15 15 15 15
Height
780 788 794 793 793 794 794 793 791 791 794 797 801 805 807 810 810 804 799 797 799 809 815 816 819 816 810 806 803 801 801 802 803 803 803 803 803 803 804 804 803 804 802 801 802 803 805 807 809 812 814 816 818 821 822 823 825 826 827 829 830 832 834 835 837 838 839 841 842 843 844 846 847 849 850 851 853 854 855 856 857 858 859 860 861 862
784 793 795 790 791 791 790 791 791 791 793 794 798 802 805 808 808 801 798 799 799 809 820 819 819 818 814 810 805 802 804 803 802 803 803 803 803 802 803 803 802 801 800 800 802 803 805 807 809 811 813 815 817 819 821 822 824 826 827 828 830 832 833 835 836 837 839 840 841 843 844 846 847 848 850 851 852 854 855 857 858 859 860 860 861 862
793 795 791 787 790 790 789 791 792 794 794 796 798 802 806 806 805 804 802 801 799 808 821 821 821 821 814 809 805 804 805 802 799 800 800 801 802 802 802 802 802 801 801 801 801 802 804 806 808 811 812 814 815 817 820 822 823 826 827 828 830 831 833 834 836 837 838 840 842 843 845 846 847 849 850 851 853 854 855 856 858 859 860 860 861 862
800 792 784 785 789 788 791 793 792 795 797 798 799 804 807 805 806 811 809 806 803 808 817 821 827 826 816 810 806 803 803 802 799 798 798 798 799 799 798 798 799 800 801 801 801 801 803 806 808 810 811 813 816 818 820 822 823 825 826 828 829 831 833 834 836 837 839 840 842 844 845 847 848 849 850 852 853 854 855 856 857 858 859 860 861 862
796 785 780 785 787 787 792 794 794 796 799 798 797 800 803 802 804 808 809 809 809 812 814 819 832 829 817 814 808 800 802 802 800 799 799 797 796 796 796 796 796 796 798 800 800 800 802 804 806 808 810 812 815 817 818 820 821 823 825 827 829 831 832 834 835 837 839 840 842 844 845 847 848 849 850 851 852 853 855 856 857 858 859 860 861 862
788 780 778 783 785 787 791 794 793 794 798 798 793 792 795 797 801 807 810 812 820 825 814 815 836 832 814 814 811 802 804 804 800 800 799 798 796 796 797 796 796 795 795 796 797 798 799 802 805 807 809 811 813 815 816 818 820 822 824 826 828 830 832 834 836 837 839 840 842 843 844 846 847 848 849 850 851 852 854 855 856 858 859 860 861 862
783 777 778 781 784 788 791 793 791 790 798 801 788 781 787 791 799 810 811 813 824 827 812 808 828 833 819 813 809 803 805 804 801 800 798 797 796 795 794 794 794 794 794 795 795 796 798 800 803 806 808 809 811 813 815 817 820 822 824 826 828 830 832 834 835 837 838 840 841 842 843 845 846 847 848 850 851 852 853 855 856 857 858 859 861 862
780 778 780 782 784 790 792 790 787 786 796 798 782 775 782 788 797 806 807 810 815 817 815 812 818 831 827 812 801 801 806 806 801 799 797 795 795 792 791 790 791 792 792 794 795 795 797 798 800 803 805 807 809 812 815 817 819 821 823 825 827 829 831 833 835 836 838 839 840 841 843 844 845 847 848 849 851 852 853 855 855 856 858 859 860 861
778 779 780 781 786 790 786 781 778 781 789 787 779 780 784 790 799 806 812 818 815 817 827 821 816 831 829 807 799 801 805 807 800 794 792 791 792 791 789 788 787 789 789 791 793 794 795 796 798 800 802 805 808 811 813 814 817 820 822 824 826 828 830 832 834 836 837 839 840 841 842 843 845 846 848 849 850 852 853 854 855 856 857 858 859 860
776 775 774 777 784 785 777 774 774 778 782 778 778 786 792 799 807 814 823 829 827 827 830 823 818 832 828 808 807 808 805 802 790 785 787 786 788 788 787 787 785 787 788 788 790 791 792 794 795 798 801 804 807 809 811 813 816 819 821 824 825 827 829 831 834 835 836 838 839 841 841 842 844 845 847 848 849 851 852 853 854 855 856 857 858 859
774 770 771 774 778 775 770 772 773 774 774 772 780 791 798 807 811 816 822 828 838 835 825 818 814 825 827 809 805 804 791 784 779 780 783 782 784 785 785 785 784 785 786 787 789 789 791 792 794 797 800 803 805 808 810 813 816 818 820 822 824 826 828 830 832 834 836 837 838 840 841 842 843 844 845 847 848 849 851 852 853 854 855 856 857 858
776 773 775 772 770 770 769 771 774 773 771 774 784 790 800 814 816 821 827 831 843 837 819 813 811 823 829 808 796 793 779 774 778 778 778 777 780 782 782 784 783 783 784 786 788 789 791 793 795 798 800 802 805 808 810 812 814 817 819 821 823 825 827 828 831 833 834 836 837 839 840 841 842 843 844 845 847 848 849 851 852 853 854 855 856 857
780 778 778 772 767 769 772 774 775 775 775 778 785 788 805 827 830 835 842 840 841 831 815 813 815 824 823 798 789 789 779 775 774 771 771 772 775 778 780 781 781 781 783 784 787 788 790 792 794 797 799 802 805 806 808 810 812 815 817 819 822 823 825 827 829 831 833 834 836 838 839 840 842 843 843 844 846 847 848 849 851 852 853 854 855 856
790 784 778 776 772 768 772 777 780 781 780 783 786 788 806 831 843 848 850 845 838 825 812 811 817 822 813 794 788 787 779 772 767 764 765 766 769 773 776 778 779 780 781 782 785 786 787 789 791 794 797 800 803 805 807 809 811 813 816 818 820 822 823 825 827 829 831 832 834 836 838 839 841 842 843 844 845 846 847 848 849 850 852 853 854 854
807 802 788 784 781 774 774 778 780 779 780 783 782 784 797 815 834 845 843 838 835 827 821 819 819 816 806 795 788 782 777 770 763 760 759 760 764 768 773 777 778 779 780 780 782 783 784 786 789 792 795 798 800 803 805 807 810 812 814 816 818 820 822 823 825 827 828 830 832 835 837 838 840 841 842 843 844 845 846 847 848 849 850 851 852 853
813 810 791 783 781 778 777 776 774 776 783 784 778 786 796 797 812 829 827 821 823 828 830 826 815 802 793 788 782 779 778 772 765 761 760 762 763 766 773 776 776 778 779 779 781 782 783 784 787 790 793 796 798 801 804 805 808 810 812 814 816 818 819 821 823 825 826 828 831 833 835 837 838 840 841 842 843 844 845 846 847 848 849 850 851 852
811 806 790 783 779 775 778 777 772 777 786 786 785 795 796 786 795 818 825 818 818 825 825 820 812 799 791 788 782 781 781 777 774 769 766 766 764 767 773 774 775 776 776 778 779 779 781 783 786 788 790 794 796 799 801 803 805 807 809 811 814 816 818 819 821 823 824 826 829 831 833 835 836 838 839 840 841 843 844 845 846 847 848 849 850 851
805 806 794 789 786 777 773 775 773 772 778 787 793 794 790 788 792 809 828 830 828 828 820 815 817 812 808 803 790 786 788 785 783 778 773 770 768 770 772 772 773 773 774 776 777 778 780 782 784 787 789 791 794 796 798 800 803 805 807 809 811 813 815 817 819 821 823 824 826 828 830 832 834 836 837 839 840 842 843 844 844 845 846 847 849 850
800 807 799 791 792 784 773 777 782 777 773 779 787 784 788 801 805 811 826 833 837 837 824 816 819 819 819 815 802 796 796 792 789 784 779 776 774 773 772 772 772 772 773 774 776 778 780 781 783 786 788 790 792 794 796 798 801 803 805 807 809 811 812 814 816 818 820 822 824 826 828 830 832 834 836 837 839 840 841 842 843 844 845 846 848 848
797 807 806 792 788 787 783 788 800 798 782 775 781 785 790 798 804 809 813 815 827 836 829 819 818 820 819 813 809 804 799 796 793 788 785 782 780 778 776 776 776 776 776 775 775 777 778 780 782 783 787 789 791 793 795 798 800 801 803 805 807 809 811 812 814 816 818 820 822 824 826 828 830 832 834 835 837 838 839 841 842 843 844 845 846 847
796 806 811 798 789 795 800 800 804 806 798 790 793 801 804 801 800 805 804 801 808 819 825 822 819 821 817 808 808 805 799 797 795 791 790 787 784 782 780 779 780 781 782 781 778 777 777 779 781 783 786 788 790 793 794 796 798 799 802 804 805 807 809 810 812 814 816 818 820 822 824 826 828 830 832 833 835 836 838 839 841 842 843 844 845 846
796 803 808 806 802 804 805 797 794 798 799 798 800 806 811 809 810 816 813 803 799 804 816 823 823 824 816 804 805 804 798 797 795 792 791 789 787 786 783 780 780 780 782 783 784 783 781 781 782 785 787 789 792 794 795 796 796 798 799 801 803 805 806 808 810 812 814 816 818 820 822 824 826 828 830 831 833 834 836 838 839 840 841 842 844 845
792 799 805 809 810 806 801 794 792 794 792 792 796 802 806 809 817 825 819 807 803 803 808 818 826 825 813 804 804 802 798 796 795 793 791 790 789 787 787 784 780 779 779 779 783 786 786 784 784 786 787 788 791 793 795 797 797 798 799 799 801 802 803 806 807 810 812 814 816 818 820 822 824 826 828 829 831 832 833 835 837 838 839 840 842 843
791 803 808 810 812 805 796 792 791 789 789 794 798 800 806 812 815 817 813 806 808 811 807 812 827 827 811 804 804 800 798 796 795 794 791 790 790 788 789 788 782 779 779 778 779 782 785 785 784 786 787 788 789 790 792 794 796 798 800 802 803 803 803 805 806 809 810 812 814 816 818 820 822 824 825 827 828 830 832 833 835 836 837 839 840 841
795 809 812 815 821 817 810 806 800 793 794 802 805 803 806 811 811 811 810 807 812 822 817 811 824 829 814 805 805 802 800 798 796 795 791 789 791 789 788 788 784 781 780 779 779 780 782 784 785 786 787 787 788 789 790 792 794 796 798 801 803 805 806 807 808 809 810 811 812 813 816 818 820 822 823 824 826 827 830 831 833 834 835 837 838 839
795 807 809 815 827 832 829 823 813 805 803 805 807 808 808 809 813 814 810 807 813 826 825 818 824 827 814 808 809 806 803 802 799 796 792 788 788 788 787 787 786 784 782 781 781 781 781 783 784 785 786 787 788 789 790 792 794 796 797 798 800 803 804 806 808 809 809 811 812 813 814 816 817 819 821 823 824 826 828 829 831 832 833 835 836 838
797 805 805 808 816 820 818 814 808 806 807 809 809 812 812 810 814 816 813 815 820 824 826 823 821 822 818 815 813 810 807 806 802 799 796 792 790 790 789 787 786 786 786 785 784 784 783 783 784 786 787 788 787 787 788 790 793 796 797 797 798 800 801 804 806 806 807 809 811 812 813 814 815 817 819 821 822 824 825 827 829 830 831 833 834 836
798 806 807 805 806 807 805 804 804 803 806 812 812 812 814 812 815 821 823 824 824 825 828 824 817 819 822 818 814 812 809 806 803 801 799 797 794 793 791 789 788 787 787 787 787 786 786 785 786 787 788 789 788 786 786 787 789 792 795 796 797 798 800 801 803 805 807 808 809 810 810 811 813 814 816 818 820 822 824 825 826 828 830 831 832 834
797 806 808 806 805 806 805 802 803 804 806 811 812 811 813 814 816 825 828 824 823 827 830 824 819 821 822 817 814 812 809 806 804 801 799 797 795 794 793 791 790 789 788 789 790 788 787 786 786 788 790 791 790 789 788 787 787 788 791 792 793 795 797 798 799 801 803 805 808 809 808 808 810 812 813 815 817 819 821 823 825 826 828 829 830 832
798 803 806 807 806 808 809 805 805 808 810 812 814 813 814 815 816 822 825 821 821 828 830 825 823 823 819 816 813 810 807 805 802 800 799 799 797 796 795 794 793 793 792 792 791 790 788 787 787 788 790 791 790 789 789 788 787 788 788 789 790 792 793 794 795 796 797 799 801 804 806 807 807 809 811 812 814 816 819 821 823 825 826 827 828 829
797 805 808 806 808 814 812 809 810 812 813 815 818 817 815 814 814 818 821 819 819 828 833 832 831 826 818 813 812 809 807 805 804 803 802 800 800 799 798 798 797 796 796 795 793 791 790 789 789 789 790 790 789 789 789 788 788 788 788 788 788 788 789 790 791 791 793 795 795 798 802 806 807 807 808 809 811 813 815 818 820 822 823 824 825 827
796 805 808 805 813 821 817 815 817 814 813 817 819 819 819 816 814 817 820 820 820 825 833 839 838 829 819 813 811 810 809 809 809 807 805 803 803 802 802 802 801 801 799 798 796 794 793 792 792 792 791 791 790 789 789 788 788 788 788 788 788 788 789 790 790 790 790 792 794 795 798 804 807 807 806 807 808 810 812 814 816 818 820 821 823 824
799 802 806 808 816 824 822 820 819 817 821 826 823 821 822 819 816 816 816 818 821 824 830 837 836 827 819 815 813 813 813 813 813 811 809 808 806 805 805 805 804 804 802 801 799 798 797 796 795 795 793 792 791 790 789 788 787 787 787 788 788 788 788 790 791 792 791 792 793 793 794 799 805 807 806 805 806 807 810 811 813 815 816 817 819 821
802 800 806 812 815 824 827 822 821 829 835 830 821 819 820 818 817 815 813 816 820 821 824 827 826 823 820 817 816 817 817 816 816 813 811 810 809 808 808 807 807 806 805 804 802 800 799 799 798 797 796 795 793 791 789 788 787 787 787 787 787 787 787 787 789 791 792 793 793 793 792 795 800 805 807 806 805 806 807 809 811 812 813 814 815 817
800 802 810 814 816 825 829 826 834 843 836 822 817 816 815 815 815 814 813 812 813 817 821 823 822 820 820 818 817 817 818 816 815 813 811 811 811 810 810 810 809 808 807 806 805 803 802 801 799 799 798 796 795 792 790 788 787 787 787 787 788 787 786 786 786 789 791 792 793 794 793 794 796 801 805 806 807 807 807 807 808 810 811 811 811 812
796 801 809 816 821 827 830 834 842 841 828 818 817 815 812 814 815 814 813 809 807 813 819 822 821 818 817 819 818 816 816 815 814 814 814 813 813 812 813 813 811 810 810 809 807 806 804 803 802 801 800 798 796 794 792 790 788 788 788 788 788 789 787 786 786 788 790 791 793 795 796 796 799 802 803 804 807 810 810 808 808 809 810 809 810 811
794 798 804 815 824 830 836 842 841 837 832 825 818 813 811 813 813 815 818 811 804 807 813 818 820 818 817 819 818 816 816 815 816 818 816 814 815 814 814 813 812 812 812 810 810 809 807 806 805 803 802 800 798 796 795 793 791 790 791 791 790 790 789 788 789 789 790 791 794 796 797 798 801 804 803 802 805 810 811 809 808 809 809 808 809 811
794 795 798 810 825 832 838 843 845 843 838 826 815 809 808 809 809 812 820 816 803 801 808 814 818 818 818 819 819 818 817 819 824 824 818 816 816 815 815 815 813 813 813 812 812 810 809 808 807 806 805 802 801 800 798 797 795 794 794 794 793 791 790 790 791 791 791 792 793 796 799 800 801 803 803 802 804 808 809 809 809 809 808 808 808 809
797 799 799 808 823 830 831 837 843 840 828 816 809 806 806 809 808 811 823 821 804 799 805 811 815 818 817 817 818 819 821 826 830 826 819 816 817 816 816 816 815 815 815 814 814 813 812 811 809 808 807 805 805 804 802 800 798 797 797 797 796 795 794 794 794 793 793 794 795 797 799 800 801 802 802 803 805 808 809 809 809 809 808 808 808 809
799 801 803 810 820 826 827 831 835 830 818 811 807 805 807 807 807 819 833 825 806 803 807 808 813 816 815 816 818 819 822 826 826 823 819 817 817 817 817 818 817 817 816 815 816 815 814 813 811 810 810 809 809 807 805 803 801 800 801 800 799 799 799 798 798 797 797 797 797 799 801 803 803 803 804 805 807 808 809 808 808 808 808 808 809 809
806 808 814 818 821 825 825 826 828 824 814 808 806 806 806 808 816 830 833 818 807 809 808 807 812 816 816 818 819 819 820 820 820 819 819 818 818 818 818 819 819 819 819 818 818 817 816 815 814 813 813 813 812 810 808 806 804 804 804 803 802 802 803 802 802 801 801 801 801 802 803 804 805 805 805 807 808 808 809 808 807 807 807 808 808 808
811 815 821 823 825 829 827 824 827 824 811 803 806 806 806 813 824 826 818 811 810 809 807 809 813 815 816 818 818 818 819 820 819 820 820 819 819 819 819 820 820 821 821 820 819 819 818 817 817 816 816 815 814 813 811 809 808 808 807 806 806 807 806 806 805 805 804 804 804 804 804 805 805 806 807 808 809 809 809 808 807 807 808 808 808 808
806 810 819 822 825 830 830 827 827 822 809 802 806 809 808 812 815 811 808 811 811 807 808 812 814 815 817 818 818 819 820 821 821 821 821 821 821 821 820 820 821 822 822 822 821 821 820 819 819 819 818 818 817 816 815 813 812 812 811 811 811 811 810 809 808 808 807 806 806 806 807 807 808 808 809 810 810 811 810 810 809 808 808 808 808 808
803 806 813 817 818 821 824 822 817 811 805 803 804 806 805 805 804 804 806 810 809 808 810 812 814 817 817 816 819 820 820 821 821 822 823 823 823 822 822 821 822 823 823 824 824 823 822 821 821 821 821 820 820 819 818 817 816 815 815 815 815 814 813 812 811 811 810 810 810 810 810 811 811 811 812 812 812 812 812 811 810 809 809 809 808 808
801 801 802 806 810 813 814 811 807 804 804 805 803 802 802 802 803 804 805 806 808 809 809 810 814 817 815 816 818 819 820 821 822 822 823 824 824 824 822 822 823 824 825 825 825 825 825 824 823 823 822 822 822 821 821 820 819 818 818 818 818 817 816 815 814 814 814 814 814 814 813 813 813 813 813 813 813 813 812 812 812 811 811 810 809 809
800 800 798 800 807 812 809 807 806 804 804 804 803 803 802 802 803 804 804 805 807 808 808 810 813 814 815 816 817 819 821 822 822 823 825 825 825 825 823 823 824 825 826 827 827 827 827 826 826 825 825 824 824 824 823 822 821 821 821 821 820 820 819 818 817 816 816 816 816 816 816 816 815 815 815 815 815 814 813 813 812 812 812 811 811 811
800 800 799 801 807 810 808 806 806 805 804 804 803 802 801 802 803 803 803 804 806 807 808 809 811 813 815 815 816 819 822 822 823 825 825 825 825 825 824 824 825 826 827 827 827 828 828 827 827 827 827 827 826 826 825 825 823 823 823 823 822 822 821 821 820 819 819 819 818 818 818 818 818 818 817 817 816 816 815 814 813 812 812 812 812 813
797 795 799 805 808 809 808 807 806 805 803 803 803 801 800 801 802 803 803 804 805 807 808 809 810 812 813 815 816 818 820 822 823 823 824 825 825 825 825 826 826 827 827 827 828 828 828 828 828 828 828 828 828 828 827 826 825 825 824 824 823 823 823 823 822 822 821 821 821 821 820 820 820 819 819 819 818 817 817 816 815 815 814 814 814 815
794 794 800 806 808 810 811 808 807 806 804 802 801 801 801 801 801 803 804 805 805 807 808 809 810 811 812 814 815 816 818 820 821 821 823 824 824 825 826 827 827 828 828 828 829 829 829 829 829 828 828 828 828 829 828 828 827 826 825 824 824 824 824 824 824 823 823 823 822 822 822 822 821 821 820 820 819 819 819 818 818 818 817 817 817 817
793 797 804 807 807 808 805 802 802 804 803 800 798 798 800 801 801 802 804 804 805 807 808 809 810 811 812 813 813 814 816 818 819 821 822 823 824 826 826 827 828 828 829 829 829 829 829 830 829 829 829 829 828 828 828 828 828 827 827 826 825 824 824 824 824 825 824 824 824 824 823 823 823 822 822 821 821 821 821 820 821 820 820 820 820 820
788 792 797 798 798 797 793 793 796 796 795 795 795 796 799 801 801 801 803 804 805 806 807 808 810 811 812 812 813 814 815 816 818 820 821 822 824 825 826 827 828 828 829 829 829 830 830 830 830 830 830 830 829 829 828 828 828 828 827 827 826 826 825 825 825 825 825 825 825 825 825 825 824 824 823 823 823 822 822 822 822 822 822 822 822 822
Wind_Speed
4 3 0 4 5 4 5 5 5 4 3 5 4 2 3 4 3 3 3 2 6 4 3 1 4 5 4 2 2 4 6 7 8 9 9 9 8 8 9 9 9 8 8 12 17 20 22 22 22 22 22 22 21 21 22 22 22 21 20 20 20 20 19 19 18 18 17 17 16 14 14 15 15 15 14 14 13 12 11 10 10 9 9 8 6 5
4 2 4 6 5 5 5 3 2 1 1 3 4 3 3 4 4 3 2 2 4 3 1 5 3 3 4 3 3 1 6 10 10 10 10 10 9 8 9 10 9 8 6 8 12 17 20 20 21 22 22 23 24 24 25 25 23 22 21 21 21 21 21 21 20 19 19 18 17 16 16 16 15 16 15 15 14 13 12 11 11 10 9 8 6 5
5 3 8 7 6 5 3 2 2 1 1 1 2 1 2 3 2 2 3 3 2 1 2 4 2 3 3 4 5 3 5 8 8 9 10 11 11 9 9 10 9 8 6 7 10 14 18 20 22 22 23 25 26 25 26 25 24 23 22 22 22 22 23 23 22 21 20 18 16 15 15 15 15 16 16 15 14 14 12 12 12 11 10 9 8 7
2 5 7 5 7 6 2 3 4 2 1 1 1 1 3 2 2 1 1 1 2 2 3 5 3 3 5 4 6 5 4 4 4 6 7 8 10 11 11 10 10 10 8 8 9 12 16 19 21 22 23 25 24 23 24 25 25 24 24 23 23 24 25 24 23 22 20 18 15 14 13 13 13 14 15 14 14 14 14 13 13 13 12 11 10 8
5 8 4 4 7 7 4 4 5 3 2 3 4 4 4 2 3 2 3 2 3 3 4 7 3 4 5 5 7 6 4 4 3 4 5 7 8 9 9 9 10 11 10 10 10 11 14 17 21 23 24 24 24 25 27 28 28 27 27 25 24 25 26 25 25 23 21 18 16 15 14 13 13 13 14 16 16 17 17 16 15 15 14 13 12 10
7 7 3 3 4 6 6 4 5 5 2 2 4 8 8 5 4 6 7 5 2 1 3 5 2 3 4 8 9 6 4 6 4 5 7 7 7 7 8 9 9 10 10 10 11 12 15 18 21 22 23 25 25 27 29 30 30 29 28 27 26 26 27 26 25 25 23 20 19 18 17 16 15 14 15 17 18 18 18 18 17 17 17 16 14 12
4 4 2 3 4 5 6 3 5 6 4 2 4 8 8 7 7 10 10 6 2 2 3 5 4 2 3 6 10 8 7 8 6 6 9 7 7 9 9 9 9 9 8 8 10 11 14 18 20 20 23 26 27 28 29 29 29 29 28 28 27 27 27 27 26 25 24 23 21 20 20 18 18 18 18 17 17 17 17 16 16 17 18 18 17 14
3 3 2 2 3 4 4 3 6 8 7 3 5 4 6 7 9 12 10 5 2 2 1 4 3 1 4 5 8 10 9 10 10 10 10 8 8 10 11 11 10 10 9 8 9 10 13 18 21 22 25 28 29 28 28 28 29 30 30 29 29 29 28 28 27 26 26 24 23 22 21 20 20 20 19 18 17 17 17 16 15 15 17 19 18 17
2 2 2 3 4 2 5 5 8 10 6 5 2 4 3 4 5 5 3 2 2 3 1 4 3 0 4 4 2 8 11 12 14 15 14 11 10 10 11 12 12 11 10 10 10 11 14 19 23 26 28 29 28 28 29 30 30 31 31 30 30 30 30 29 28 27 26 25 23 23 22 21 21 20 19 19 18 18 18 17 15 14 16 19 19 19
3 4 5 5 4 4 6 5 8 11 6 4 9 12 11 11 11 9 6 5 5 3 2 6 6 2 4 3 1 5 9 14 17 16 14 12 10 10 10 11 11 10 9 9 10 12 17 23 26 28 28 28 28 29 31 30 29 29 30 31 31 31 31 30 29 27 26 25 24 24 23 22 22 22 22 21 20 20 19 18 17 15 16 18 19 19
5 2 3 3 3 6 6 4 7 10 7 5 10 10 10 10 7 6 4 3 3 3 3 7 10 4 2 4 4 5 7 12 15 13 12 12 11 10 10 10 10 9 9 8 8 12 18 24 27 27 26 27 28 28 28 28 27 28 30 31 32 32 32 31 30 28 27 25 25 25 24 22 22 22 23 23 21 21 20 20 19 17 16 17 18 19
6 5 1 2 3 2 1 0 1 3 3 3 5 5 5 4 3 4 3 3 1 4 4 4 9 6 2 4 4 5 7 7 8 10 13 16 14 12 9 8 9 9 9 9 8 9 13 16 19 22 23 25 25 25 26 27 28 28 30 31 32 32 32 32 31 30 28 27 26 25 23 22 21 21 22 23 23 22 21 20 19 18 17 17 18 18
4 2 4 5 3 3 4 2 4 4 1 2 3 4 4 3 4 3 2 1 2 4 3 4 7 4 5 5 2 6 9 8 7 8 12 15 15 12 10 9 8 8 9 9 8 8 9 10 14 19 21 22 23 25 27 28 28 29 30 31 32 32 33 33 32 32 30 29 27 26 24 22 21 21 21 23 23 22 21 20 20 20 18 18 18 18
3 4 7 8 4 5 5 3 2 3 2 4 4 4 4 4 3 1 2 2 2 4 3 6 8 3 4 2 4 6 8 9 9 10 10 11 14 13 11 10 8 7 9 8 8 9 9 11 16 20 21 23 24 26 28 28 29 29 29 31 32 32 33 33 33 32 32 30 29 28 25 23 21 22 22 22 22 21 20 20 20 20 19 18 18 19
2 3 5 5 4 5 4 2 2 1 3 3 2 3 4 6 3 2 3 2 2 3 2 2 5 3 2 1 3 6 9 10 7 9 9 8 10 11 9 8 8 8 8 8 9 10 10 14 19 21 22 24 26 27 27 28 28 29 29 31 32 32 32 33 33 32 32 31 31 29 27 24 22 23 23 22 22 22 21 20 20 20 19 18 17 17
3 2 5 5 4 3 6 3 1 4 2 2 0 4 2 5 6 1 3 3 2 1 1 1 3 3 3 2 4 9 11 13 10 3 6 6 8 11 10 9 9 8 7 7 9 10 12 16 20 21 22 24 25 26 27 28 29 29 29 31 32 32 33 33 33 33 32 32 32 31 29 26 23 23 24 23 23 23 22 21 21 21 20 18 17 16
3 2 6 6 4 4 5 3 2 4 2 2 2 3 3 1 7 3 4 2 1 0 1 2 3 4 2 1 7 13 14 15 15 8 1 3 6 10 11 10 9 8 8 7 9 10 11 15 19 21 23 25 25 26 27 29 30 31 31 31 32 31 31 33 33 32 32 32 32 32 30 27 24 24 25 25 24 24 23 22 22 22 21 20 18 18
2 1 6 5 5 6 5 2 4 5 3 2 2 3 2 2 4 3 1 4 3 1 3 2 2 3 3 1 7 14 15 14 14 12 6 2 4 7 8 9 10 9 8 8 8 9 10 15 19 21 23 26 28 29 30 31 32 32 32 32 32 31 31 32 33 32 31 32 33 33 31 27 26 26 26 25 24 24 24 23 23 23 22 21 20 19
3 1 6 3 2 7 6 5 4 7 3 5 4 2 3 2 1 3 2 1 1 2 4 4 1 1 3 3 8 12 13 13 12 11 8 4 0 3 5 6 9 9 8 8 7 7 8 13 18 20 22 26 28 29 31 32 31 31 31 31 32 33 33 33 33 32 32 32 33 33 32 28 27 27 26 24 23 23 24 24 23 23 23 22 20 19
2 2 4 5 3 4 5 5 2 6 5 3 4 3 3 2 3 2 3 4 3 2 3 3 2 1 1 5 9 10 10 10 10 8 7 7 5 4 2 2 0 2 4 5 7 7 7 12 18 21 23 25 27 28 29 29 30 30 31 30 30 31 32 32 32 32 32 32 32 32 31 29 28 28 26 24 23 23 24 24 23 23 24 23 22 21
2 3 1 6 6 3 2 1 2 2 3 3 5 5 4 3 1 1 2 2 4 3 2 2 2 1 1 4 8 10 8 9 9 8 7 7 8 8 6 6 5 6 5 3 0 3 6 8 12 16 20 22 24 26 27 28 30 30 30 30 31 31 31 31 31 32 32 32 32 31 31 30 30 29 27 25 24 24 24 23 23 23 23 23 24 23
0 2 1 3 3 3 2 5 3 3 3 1 4 4 2 2 2 1 3 2 1 3 3 2 2 1 3 5 7 8 7 8 9 8 7 8 10 9 7 6 6 7 6 5 5 4 3 6 8 7 7 9 13 16 20 25 28 29 30 32 32 31 31 32 32 32 32 31 31 31 31 31 31 30 28 27 26 26 25 24 23 23 22 23 24 23
2 3 3 1 1 3 6 6 6 5 3 3 3 4 2 1 2 2 3 3 2 1 3 2 0 1 3 5 7 7 7 7 8 8 7 6 6 6 5 3 6 8 7 7 6 5 6 9 12 12 11 8 7 7 10 15 19 23 27 30 31 32 32 33 33 32 32 31 31 31 31 30 30 30 29 28 27 27 27 25 24 23 22 22 22 22
1 3 3 2 3 4 6 6 6 4 2 4 3 3 4 3 2 4 4 2 0 1 1 2 0 1 3 5 6 6 6 7 8 7 6 4 3 3 2 1 3 7 7 8 8 7 6 9 10 9 9 9 10 9 8 11 13 14 17 19 22 26 28 30 31 31 31 30 30 30 30 29 29 29 29 29 29 28 27 26 24 22 21 21 21 21
1 1 3 2 3 5 5 6 5 4 4 3 1 3 5 7 7 4 2 1 1 2 1 2 1 1 2 4 5 6 7 7 7 6 5 4 3 4 3 3 3 3 5 7 8 8 8 7 7 7 8 8 10 11 12 14 14 15 16 17 16 17 18 20 23 24 27 29 30 29 29 29 28 28 29 29 29 29 28 26 24 22 20 20 21 21
2 2 3 4 3 1 1 2 3 2 2 1 1 5 7 11 12 4 1 2 2 1 1 2 2 1 1 4 7 8 7 6 6 6 6 6 6 6 5 4 4 3 4 5 6 6 7 7 6 7 8 8 8 10 12 14 14 15 19 22 23 22 20 21 22 22 22 24 25 26 28 29 29 28 29 29 28 29 28 26 24 23 21 21 20 20
3 2 2 6 6 5 5 6 6 2 2 1 2 5 7 9 11 5 2 2 1 1 2 2 3 4 5 7 7 8 7 6 6 6 6 6 7 6 6 5 4 4 4 4 4 4 4 5 6 7 8 8 10 12 15 16 17 17 19 22 25 26 24 24 24 23 23 23 23 24 26 28 28 28 28 28 28 28 28 26 25 24 23 21 20 20
4 2 1 4 4 5 6 6 5 1 3 3 2 4 6 8 9 6 4 3 1 2 2 1 2 5 5 5 5 6 7 6 6 7 7 6 6 5 5 6 7 7 6 5 5 4 3 2 4 7 9 12 15 17 18 19 21 24 24 24 24 24 23 23 23 21 21 21 22 25 28 28 28 28 28 27 27 27 28 27 26 25 23 22 21 21
5 1 1 2 1 3 3 6 3 2 3 4 4 4 4 5 6 6 5 5 4 3 1 1 3 5 5 2 4 6 7 6 6 7 6 6 7 7 6 8 9 10 9 7 6 5 5 5 4 3 2 8 12 14 16 19 22 25 26 27 26 26 26 26 27 27 25 22 23 27 29 29 29 28 27 26 26 26 27 26 25 24 24 23 23 22
4 0 2 2 3 6 4 3 1 2 2 3 4 3 3 4 5 4 4 8 9 5 4 3 5 6 4 1 4 5 7 6 5 6 6 8 9 9 9 9 10 10 10 8 7 7 7 6 6 6 5 4 6 9 12 16 20 23 26 27 27 29 31 32 33 33 31 30 31 31 30 29 29 29 28 27 26 25 25 24 24 24 24 24 24 23
3 1 2 2 4 6 5 3 4 3 3 4 5 6 4 2 5 4 2 6 8 4 6 7 4 2 2 2 4 5 6 6 6 7 8 8 9 10 10 10 10 10 10 9 8 8 8 8 8 9 9 8 5 6 10 14 17 20 22 24 26 30 33 34 36 35 34 35 35 31 27 26 28 28 27 27 27 26 24 23 22 21 22 23 23 24
3 1 2 4 5 3 4 5 4 3 6 5 4 6 7 4 2 2 3 4 4 4 1 6 6 2 1 3 4 5 6 7 8 8 8 8 9 10 10 10 10 10 10 9 9 8 8 8 9 9 10 11 9 5 6 11 15 18 20 22 25 28 28 29 31 32 31 31 30 28 24 23 25 27 27 27 26 26 25 24 23 20 19 18 19 21
2 3 1 2 3 2 4 3 3 4 5 2 3 2 3 4 2 0 4 5 4 4 4 1 4 3 2 2 3 5 6 7 8 7 7 7 8 9 9 9 10 9 10 10 10 9 9 9 9 11 11 11 11 9 5 6 11 16 20 21 24 26 26 25 24 23 23 23 24 25 23 19 19 20 22 25 25 24 23 24 24 23 22 20 18 16
2 4 2 2 3 1 4 1 3 3 1 4 4 2 3 2 2 1 1 3 4 3 3 3 4 3 1 1 2 4 6 6 5 6 6 7 6 7 8 9 9 9 9 9 9 9 9 10 12 14 15 14 14 13 10 6 3 10 16 18 20 23 26 26 22 18 17 18 20 22 22 21 20 18 16 16 17 18 19 20 22 24 24 23 22 21
3 4 2 1 3 2 1 3 3 2 5 5 3 3 3 1 1 1 1 0 3 4 2 3 5 5 3 1 2 4 5 4 4 7 8 8 6 6 7 8 8 9 9 8 8 9 10 12 14 16 17 17 18 18 16 13 7 4 7 8 8 10 16 22 21 17 15 16 17 19 20 20 20 18 13 8 7 9 13 16 18 20 21 21 22 22
6 4 2 2 2 2 2 3 2 4 5 5 5 4 3 1 2 3 3 3 2 5 3 3 3 5 5 3 3 3 2 2 5 7 8 8 7 6 6 6 7 8 8 8 9 10 12 14 16 17 19 21 22 22 21 17 12 9 7 6 5 3 1 7 13 13 13 12 12 12 13 11 10 10 10 8 6 7 10 12 14 15 17 18 17 17
6 4 3 2 1 2 3 2 1 4 4 4 4 3 3 2 2 2 1 4 3 4 5 4 3 4 5 5 3 1 1 3 5 5 6 7 6 6 5 6 7 7 8 10 11 12 15 17 18 19 21 23 25 24 22 20 17 16 14 11 8 8 8 10 11 12 12 12 10 7 6 6 6 5 6 7 7 9 10 11 12 14 16 17 16 15
4 3 4 3 1 2 4 2 1 2 2 5 6 5 2 3 4 4 1 4 5 4 5 5 5 4 4 6 4 0 2 3 2 3 4 5 5 5 6 8 9 10 11 13 14 15 17 18 20 21 22 24 24 23 22 21 21 22 21 19 17 15 15 14 12 12 13 12 11 8 6 4 2 1 2 3 3 7 9 9 10 12 14 15 15 16
6 3 4 5 2 2 4 3 2 2 4 6 7 7 4 2 5 5 4 4 5 3 5 5 5 5 5 5 4 2 2 1 0 2 3 3 3 4 5 7 10 13 14 14 15 15 16 17 19 22 23 23 22 21 21 22 24 25 24 22 23 23 21 18 15 14 14 13 11 9 6 3 0 2 3 3 3 5 7 9 10 10 10 12 12 13
6 4 4 4 2 2 4 2 2 3 3 4 5 5 3 3 5 6 2 5 4 2 4 4 4 4 5 5 4 3 2 1 3 4 2 1 2 4 6 7 10 13 14 14 14 15 17 18 20 22 23 22 20 20 21 23 25 26 24 24 25 25 23 19 17 16 15 14 13 11 10 8 6 4 1 2 4 5 7 10 10 9 9 11 12 12
3 3 2 4 3 2 3 2 2 3 4 5 4 4 2 4 5 3 3 5 2 3 3 3 5 4 4 5 4 3 2 1 2 3 2 1 2 5 8 9 11 13 14 13 13 14 17 19 20 21 22 20 19 20 21 23 25 25 24 24 25 24 21 19 18 18 17 16 15 13 11 9 8 7 5 2 1 3 5 8 8 8 10 12 13 13
1 2 1 3 3 2 3 2 1 3 4 3 2 1 3 4 2 3 5 4 1 3 3 4 5 5 5 5 3 3 3 2 3 4 3 2 2 4 7 9 11 13 13 12 12 13 16 18 19 20 20 20 20 20 21 22 24 24 24 24 23 20 18 17 17 17 18 17 17 17 16 14 12 10 8 5 3 3 4 6 7 7 9 12 12 12
3 3 1 1 3 2 2 2 1 2 3 4 5 2 1 3 4 4 2 1 1 4 4 3 3 4 6 6 4 4 5 4 4 4 3 3 3 4 6 9 11 12 12 12 12 12 13 16 17 18 18 19 19 20 20 22 24 24 24 22 19 17 16 15 15 16 17 17 17 18 18 17 15 14 13 11 9 6 4 4 4 5 7 8 9 10
3 3 2 3 3 3 2 1 2 3 4 3 4 3 4 4 4 4 4 2 2 3 3 2 2 4 6 7 6 6 6 5 4 4 3 3 2 3 6 8 10 12 12 12 11 10 11 13 14 15 16 17 18 19 19 20 22 23 23 21 18 16 15 14 14 15 16 16 15 16 16 16 16 15 14 14 13 12 11 9 6 3 4 5 6 8
3 4 4 3 3 3 4 5 5 4 3 3 4 4 4 1 2 4 4 3 2 2 3 3 4 5 6 7 7 6 5 5 5 4 4 3 2 3 6 7 9 10 11 10 10 9 9 10 11 12 14 15 16 17 17 18 19 21 21 19 17 16 14 13 13 14 15 15 14 14 13 13 13 13 12 11 11 12 13 13 10 6 3 1 1 3
3 2 3 3 1 1 2 3 3 3 2 2 2 4 2 2 3 4 4 4 3 3 3 4 6 6 7 7 7 5 4 5 5 4 4 4 3 4 6 8 7 8 8 8 7 6 6 8 9 10 12 14 15 15 15 15 16 17 17 17 16 16 14 13 12 12 13 12 12 11 10 10 10 10 9 9 8 9 10 11 10 9 8 7 6 5
2 2 3 3 2 2 0 2 3 3 3 3 1 1 2 3 2 3 4 4 4 4 4 5 6 7 6 6 7 7 6 6 6 5 4 4 4 5 7 7 6 5 6 5 5 4 5 6 8 9 11 12 13 13 14 13 13 13 13 13 14 14 13 13 13 12 11 10 10 10 10 11 11 10 10 9 8 9 10 10 10 10 10 11 11 10
2 3 3 2 3 2 3 6 5 3 4 4 2 2 3 4 3 3 4 4 4 5 5 5 6 6 5 5 6 7 7 6 6 6 5 4 4 6 8 7 6 4 4 4 5 5 6 7 8 8 9 9 10 10 11 12 12 12 11 11 11 11 11 12 12 11 10 10 10 11 13 13 12 12 12 12 11 11 13 13 13 12 12 12 11 10
3 3 2 2 3 1 2 4 1 3 5 5 4 4 3 3 4 5 5 5 6 6 5 5 4 5 6 6 6 7 6 5 6 6 6 4 5 7 8 7 5 3 3 3 4 5 6 8 8 9 9 9 8 9 9 10 11 11 11 11 10 9 9 10 10 10 10 10 10 10 11 12 12 13 13 13 13 14 15 15 15 14 14 13 12 11
3 3 2 4 4 1 4 5 5 3 1 5 6 5 5 4 5 6 5 5 6 6 6 5 4 3 5 6 7 6 5 4 5 7 6 6 7 10 10 9 7 4 2 1 1 2 4 6 7 8 9 10 10 10 10 10 10 10 10 10 10 9 9 8 8 9 10 10 10 9 9 10 11 11 12 13 13 13 14 15 14 14 14 14 13 12
5 6 6 6 4 5 7 8 7 5 3 5 6 5 5 4 5 6 6 5 5 5 6 6 5 4 3 4 7 7 5 5 7 8 6 6 9 11 11 11 9 7 5 3 2 2 3 4 5 7 8 9 10 10 11 10 10 10 10 9 8 9 10 9 8 7 8 9 9 9 8 8 8 8 9 10 11 11 11 12 13 12 13 13 13 12
Wind_Direction
67 76 168 207 205 194 206 204 179 185 162 135 137 159 176 196 241 248 228 144 124 169 239 31 28 357 336 316 204 181 182 193 191 189 192 190 190 190 194 199 199 201 203 201 200 198 194 190 188 187 186 186 189 198 201 200 200 200 197 195 197 196 194 196 198 199 199 198 194 192 192 189 186 184 183 183 181 180 179 181 187 189 190 189 187 195
54 97 235 227 201 183 208 218 165 168 126 114 138 185 226 219 235 260 232 93 105 168 134 77 73 301 300 303 299 209 190 204 199 194 197 195 195 195 198 202 202 204 197 184 192 196 191 185 182 182 181 181 186 194 198 200 200 201 199 198 197 195 192 193 195 196 198 198 196 193 193 191 188 187 186 185 184 182 180 185 190 194 196 191 194 216
16 267 248 230 175 154 182 145 102 110 98 103 126 161 262 243 227 339 29 61 64 140 126 106 132 279 287 261 274 281 220 217 209 202 201 197 198 199 200 202 203 206 191 174 184 190 188 182 178 178 181 185 189 192 195 198 200 201 200 200 199 194 191 191 193 195 195 196 196 195 194 193 193 193 192 190 189 188 187 188 192 199 201 198 209 226
352 255 241 191 146 140 151 129 126 94 46 197 157 201 258 216 161 22 34 147 62 90 129 114 104 290 288 276 270 264 240 243 239 221 218 210 204 204 203 200 198 201 194 181 183 185 185 181 176 178 182 185 187 189 191 195 198 201 202 203 200 194 192 192 193 195 194 194 196 198 200 200 202 202 200 201 200 199 199 198 199 205 207 209 217 225
246 247 220 143 149 153 148 135 136 136 248 236 191 218 239 175 150 127 156 166 44 57 117 112 107 261 243 233 248 247 228 247 250 220 233 236 221 214 212 208 203 200 194 185 184 184 182 179 180 182 183 182 184 189 192 194 197 200 202 203 201 196 194 194 195 195 195 196 199 204 208 210 211 211 210 210 211 210 210 211 210 210 212 217 220 222
259 255 186 176 199 155 144 170 169 163 204 282 217 217 222 193 153 127 142 141 69 261 177 136 152 263 222 215 230 233 221 232 230 210 223 231 224 218 213 215 214 207 198 189 185 183 181 182 183 184 182 181 185 192 194 195 196 198 201 202 201 199 198 197 197 197 197 199 203 207 210 210 209 211 214 216 215 215 215 216 217 215 217 219 220 220
265 275 128 175 206 145 141 202 221 175 146 289 243 209 210 200 157 144 156 155 143 226 193 170 189 273 269 229 221 215 220 232 231 223 224 221 215 214 209 209 211 209 203 193 188 183 181 182 181 183 184 184 188 194 195 195 196 198 200 201 200 200 200 199 199 199 200 202 206 210 213 214 213 213 218 220 217 216 215 216 218 218 218 220 220 220
247 298 26 88 103 127 151 217 222 173 140 239 252 192 195 195 169 165 171 166 139 92 88 184 174 344 290 258 217 196 203 229 234 230 227 218 213 214 211 207 203 203 197 188 188 184 183 183 183 185 188 190 192 193 191 193 196 198 199 199 199 199 200 200 200 201 203 205 209 212 213 216 217 218 221 222 221 220 220 220 221 218 216 217 219 221
229 250 235 128 89 137 199 217 194 162 159 235 181 89 110 121 107 116 107 7 25 65 67 205 165 132 264 276 235 183 196 222 230 226 222 214 210 211 212 208 202 201 195 186 185 185 185 186 188 190 190 192 193 191 191 193 196 197 198 198 198 199 200 200 200 202 206 209 212 212 212 215 218 222 224 224 225 225 224 225 224 221 216 215 219 222
251 214 198 138 116 202 234 236 177 161 191 199 104 77 63 65 64 63 51 10 7 6 240 192 173 188 268 270 146 166 202 221 224 223 218 213 208 206 209 208 201 197 195 191 187 187 188 188 191 193 192 192 192 192 193 193 194 195 197 198 198 199 199 199 201 204 209 213 214 212 213 216 218 221 223 223 225 225 226 227 226 224 220 218 221 223
290 267 165 128 174 214 232 231 178 175 188 139 99 84 70 64 61 66 57 42 33 297 257 183 178 170 305 263 186 174 212 221 220 218 212 209 208 203 204 205 199 194 193 191 189 191 191 192 193 192 191 191 192 193 191 190 192 194 196 197 198 199 199 200 201 205 211 214 214 213 216 219 219 219 218 218 221 222 223 226 227 228 227 224 224 225
338 4 16 261 249 229 232 161 138 190 195 113 98 106 84 49 36 53 39 54 140 251 274 188 175 169 246 261 214 232 278 269 236 222 212 207 204 201 198 197 198 195 191 187 185 191 191 191 191 189 191 191 189 189 188 189 192 194 196 196 197 199 199 201 202 205 210 213 214 216 218 219 220 220 218 216 218 220 222 225 227 229 230 229 226 225
0 8 332 308 301 24 38 34 14 12 54 110 119 108 78 32 19 28 1 310 217 246 267 154 149 171 243 260 259 259 277 277 249 229 221 211 201 196 191 191 197 194 189 188 183 185 187 186 185 187 189 188 186 188 188 189 191 194 196 197 197 199 200 201 203 205 208 212 215 217 219 220 221 221 220 218 219 221 223 225 227 228 230 231 227 225
348 315 347 355 339 6 47 90 4 351 92 147 160 128 107 94 58 334 272 300 275 265 262 161 157 204 265 296 338 313 291 277 251 227 217 210 201 193 186 184 189 191 189 188 185 185 187 184 183 186 187 184 187 190 189 189 192 193 196 197 198 200 200 201 203 205 208 211 214 217 220 223 224 222 221 221 222 223 223 224 226 229 231 232 231 228
50 322 344 360 326 345 11 117 158 155 138 176 200 121 124 133 125 240 221 212 253 270 319 143 170 210 196 184 342 340 327 319 286 231 201 193 192 181 175 179 183 189 190 188 187 188 189 186 184 185 186 186 189 190 189 190 192 193 196 198 200 201 201 201 203 205 208 211 213 216 220 226 229 226 224 226 228 227 227 227 228 229 231 233 233 233
88 260 279 284 270 353 356 320 146 102 110 268 54 92 120 152 140 212 239 196 192 183 43 166 208 230 199 220 360 8 352 350 346 290 176 171 175 163 171 189 187 186 187 187 190 191 189 187 185 185 186 188 190 190 190 191 193 195 197 199 201 203 202 203 204 206 209 211 212 213 217 224 230 230 229 230 231 231 231 232 232 233 233 233 234 238
71 259 286 314 326 11 8 328 25 81 138 281 53 106 266 187 131 170 275 318 33 187 247 230 261 304 297 267 358 8 2 0 359 355 58 149 163 164 178 191 190 187 182 185 192 192 189 185 185 187 188 189 191 192 193 194 196 198 200 201 202 203 204 203 205 207 210 210 211 213 216 222 227 229 230 232 232 232 233 234 236 237 236 235 236 240
113 259 294 337 345 327 343 34 25 34 103 102 77 171 249 10 93 127 266 344 5 263 272 274 247 322 7 336 340 357 3 3 355 346 351 57 147 174 184 187 192 187 176 181 192 192 184 183 187 188 190 192 192 194 196 197 200 201 202 203 203 202 204 205 206 208 210 210 210 212 216 221 226 228 229 233 235 235 234 236 237 237 236 236 238 239
98 26 294 308 286 300 338 50 17 341 21 116 141 159 119 114 117 112 158 236 331 265 288 305 275 11 24 336 333 347 358 1 353 348 351 3 73 203 203 193 194 187 176 176 181 186 181 181 187 188 192 196 196 197 198 199 201 202 204 206 205 205 207 208 207 207 209 210 210 212 217 221 225 226 228 232 235 235 236 237 237 237 237 238 239 238
66 77 282 296 299 310 359 38 25 319 333 76 91 45 60 140 174 151 174 177 161 215 264 304 322 52 2 332 333 336 353 6 1 4 12 9 12 10 12 30 231 198 196 185 169 169 175 179 186 189 193 197 198 200 201 200 201 203 205 206 207 208 209 209 208 208 209 211 211 213 217 221 223 224 227 231 233 234 236 237 238 239 240 241 241 240
41 70 270 301 328 22 25 333 177 237 305 15 40 28 3 344 2 264 264 154 139 171 211 266 290 297 354 343 331 328 352 15 11 19 32 29 33 39 47 56 45 33 15 338 269 153 157 164 179 190 197 200 201 202 201 201 203 204 205 207 208 208 208 208 209 209 210 211 211 213 216 220 222 223 226 229 231 232 234 236 239 242 244 244 243 241
83 86 90 319 0 84 198 240 230 212 212 150 69 54 357 337 47 41 285 284 134 141 153 191 254 305 354 346 334 337 6 25 20 26 38 36 36 37 46 74 86 72 55 27 14 21 65 91 99 123 161 188 202 208 208 206 205 205 206 207 209 209 209 209 210 210 211 211 211 213 217 220 222 224 226 228 229 230 231 235 240 244 245 245 244 243
153 103 79 2 227 202 236 261 276 262 204 138 82 74 92 74 75 133 228 262 317 148 141 124 329 295 348 346 342 351 18 37 31 31 40 44 43 33 23 57 98 99 93 86 74 48 46 69 83 96 108 129 163 194 213 215 214 213 213 211 210 210 210 210 211 211 211 211 212 214 216 219 222 224 225 227 228 229 231 235 240 244 244 244 244 243
85 77 52 328 304 300 296 306 303 295 68 73 26 38 62 14 309 233 212 191 309 303 123 111 75 326 359 352 347 351 16 46 46 32 28 38 53 39 347 316 98 104 104 103 105 101 85 82 95 118 130 138 154 168 186 206 219 224 224 224 220 217 215 213 212 212 211 211 213 215 216 217 220 223 225 226 227 228 231 234 237 240 242 241 242 242
64 80 68 45 5 345 338 338 327 334 37 78 328 359 22 2 339 293 235 120 112 305 331 138 163 335 345 346 356 2 14 37 46 33 13 6 33 35 1 349 24 68 96 102 110 117 119 110 113 145 160 156 165 180 187 198 211 217 220 226 231 231 226 219 215 214 213 213 213 213 215 217 220 222 224 225 226 226 229 234 236 236 237 238 240 242
103 129 109 107 107 114 260 279 268 291 10 52 343 5 16 9 357 333 202 99 111 211 349 102 129 129 21 13 7 0 6 21 30 32 11 358 15 17 5 17 27 28 56 76 95 109 122 132 135 152 165 165 173 189 198 201 207 215 218 220 224 227 227 223 220 218 216 217 216 215 216 217 219 222 224 224 225 226 228 231 234 234 235 237 239 242
92 79 103 133 152 181 191 220 233 197 85 87 352 7 23 16 0 354 113 69 58 111 46 39 113 110 57 29 1 343 356 5 6 24 26 10 9 7 358 10 29 40 44 53 73 92 117 137 139 145 167 191 199 204 209 207 211 222 225 222 222 224 222 218 217 216 215 217 218 218 219 219 219 220 223 224 225 225 227 229 231 234 236 237 240 243
88 41 47 142 174 211 197 214 241 202 102 127 114 27 32 24 10 22 47 13 1 90 59 339 134 104 69 29 337 325 338 348 1 22 31 26 19 10 4 14 27 35 35 32 38 44 52 76 116 142 181 216 223 217 212 206 208 219 225 225 223 221 218 214 213 215 217 217 219 221 220 220 220 220 222 224 225 225 227 229 231 233 236 238 242 246
105 87 230 159 331 307 228 219 217 124 107 121 117 94 67 46 36 43 49 49 59 69 81 147 123 97 82 15 314 321 328 341 16 29 26 31 33 27 24 28 32 33 31 27 22 21 26 23 32 80 197 241 242 233 221 209 207 213 220 224 222 218 217 216 214 215 214 216 224 229 226 221 219 220 221 222 223 225 227 230 232 234 235 238 243 248
111 248 253 166 32 360 323 237 171 82 104 87 67 72 87 90 91 87 77 75 69 35 356 49 86 87 85 303 305 327 334 349 27 37 32 34 34 33 35 35 35 35 30 23 17 20 30 28 20 16 2 309 264 244 227 219 217 217 220 222 220 218 219 218 217 214 210 214 224 229 228 224 220 218 219 220 222 224 227 230 234 236 238 240 243 248
90 340 302 88 63 355 343 43 42 25 98 77 29 12 6 61 109 106 80 82 79 46 340 333 343 75 86 307 328 353 357 9 23 24 32 38 33 33 36 33 33 33 29 24 23 28 32 32 27 19 10 356 317 256 226 221 222 224 228 227 222 220 218 215 215 214 211 214 219 220 219 222 223 219 217 217 219 221 224 227 230 234 238 241 243 245
75 93 356 59 72 335 340 72 75 58 81 66 13 0 354 352 88 114 101 94 106 129 81 317 304 306 353 316 340 9 20 23 19 14 21 32 34 33 32 31 31 30 27 23 22 28 34 33 30 24 17 11 357 325 247 227 221 222 227 229 227 226 222 216 216 215 211 210 212 210 210 219 224 219 215 216 217 217 219 223 224 226 229 235 241 244
99 114 86 82 90 314 314 79 93 63 66 35 302 321 322 316 324 80 110 93 92 131 138 207 264 278 329 328 333 5 28 28 19 15 16 22 31 32 29 31 31 28 29 28 25 30 35 33 28 22 17 12 7 2 335 256 231 223 222 224 227 227 223 221 223 222 215 207 204 204 203 207 216 218 216 216 215 214 217 221 224 226 228 229 234 245
94 94 131 141 107 238 280 1 63 62 148 229 250 240 230 272 342 330 123 100 92 105 135 174 194 223 284 333 346 24 43 34 15 16 21 21 22 26 27 26 25 26 29 29 28 30 28 24 24 22 19 17 14 14 16 2 281 225 217 219 222 223 221 219 220 221 215 205 201 200 198 199 207 214 219 216 210 209 214 220 227 231 232 231 231 238
108 88 123 107 91 137 265 49 80 202 232 248 284 262 225 172 41 350 324 167 127 112 123 181 176 181 191 163 73 74 70 50 33 28 26 22 17 23 28 22 21 27 27 25 27 25 18 18 20 19 20 21 22 25 29 29 38 133 174 190 207 226 226 215 204 198 195 194 195 198 196 197 200 204 210 216 213 212 217 224 230 231 231 233 233 233
137 129 129 90 87 115 85 85 155 247 272 303 318 287 255 336 15 8 342 302 181 143 149 186 184 168 155 144 127 114 98 64 51 34 23 20 20 27 31 19 20 28 28 25 25 23 19 19 22 23 23 26 27 28 30 35 49 74 85 83 81 54 95 167 158 149 148 155 169 187 193 190 191 198 202 205 214 223 223 223 223 221 222 226 227 226
134 141 123 87 99 131 112 122 266 317 315 296 288 267 224 187 140 122 317 291 253 169 154 157 171 163 143 144 154 149 55 54 50 26 10 13 18 27 34 24 22 30 33 33 31 30 30 31 33 33 33 33 31 29 32 40 52 60 58 56 65 78 86 98 110 117 117 116 121 134 148 153 164 180 179 178 201 224 232 229 221 219 222 221 218 221
94 140 147 130 121 106 100 89 14 359 293 243 238 253 246 159 142 124 100 292 265 199 161 145 152 162 147 150 162 142 16 44 44 350 344 2 14 31 40 30 27 32 36 37 36 34 35 37 38 39 40 40 36 32 36 44 52 55 52 47 49 59 69 77 90 107 112 111 113 113 109 113 129 139 109 113 182 226 237 240 232 227 231 231 227 228
57 66 106 105 92 99 107 117 166 203 244 236 225 249 277 129 119 86 47 303 268 187 146 136 145 163 165 159 157 132 62 58 200 265 300 337 13 39 48 35 31 35 38 39 42 41 40 42 42 42 43 41 37 37 41 47 52 52 45 41 43 45 45 48 63 85 99 102 103 102 101 101 26 305 309 315 298 263 253 254 251 246 247 250 248 243
43 31 61 94 117 138 127 140 207 215 250 252 227 240 255 129 102 73 41 280 283 102 121 129 136 161 170 156 149 151 153 185 205 215 250 320 35 56 63 54 42 41 39 39 45 51 52 49 46 44 42 39 38 43 47 49 51 49 43 41 43 39 33 37 55 75 87 91 91 91 89 88 94 106 139 270 272 263 255 254 254 253 253 254 254 252
36 31 71 116 132 141 138 163 257 247 240 245 235 223 170 111 85 82 207 242 276 66 88 107 109 127 150 149 156 181 197 216 173 164 159 80 64 56 59 66 66 59 52 46 46 53 58 56 52 49 46 44 46 49 50 52 51 47 45 44 42 36 33 41 59 74 82 85 89 93 89 81 82 92 100 107 274 275 266 265 268 264 257 256 257 258
107 63 68 110 115 130 142 141 292 277 238 202 176 173 127 113 137 218 215 221 169 96 74 79 103 117 136 149 160 167 165 147 109 121 123 86 67 47 47 63 70 66 63 61 55 54 58 58 56 54 50 48 50 50 51 54 52 48 47 46 41 38 41 48 58 66 72 75 77 79 80 77 75 74 73 67 36 340 306 296 297 289 273 264 261 264
170 147 168 174 152 124 71 62 44 266 230 162 118 99 145 163 200 209 176 60 99 112 93 79 104 126 136 142 141 134 135 130 112 112 100 54 52 52 53 63 69 68 67 67 61 57 60 61 58 55 51 49 48 47 49 53 52 49 47 43 40 45 50 52 57 61 63 66 68 70 73 74 73 71 67 63 57 44 21 348 321 302 288 273 260 259
174 149 177 224 185 127 107 183 207 213 224 192 144 168 214 204 189 169 133 81 49 108 115 105 116 142 145 138 133 131 132 130 125 120 106 87 80 78 71 71 73 74 73 73 71 67 66 64 61 57 53 48 44 43 45 48 50 48 44 39 43 53 56 57 64 69 70 70 70 70 72 72 71 68 63 59 57 54 47 39 25 340 296 279 254 243
208 181 171 182 182 164 177 214 231 228 233 221 188 201 223 191 133 141 135 121 124 157 160 136 128 143 145 133 127 131 136 136 136 135 133 134 133 108 93 81 75 75 76 78 78 72 66 65 62 58 53 48 43 41 40 42 46 46 41 37 42 50 55 58 66 71 74 75 73 72 70 69 68 65 59 53 49 46 44 40 37 34 21 4 224 205
238 185 134 126 175 211 195 222 260 286 297 284 207 201 195 115 133 144 123 118 161 179 156 140 143 148 148 139 131 130 140 143 138 135 138 137 128 114 106 96 87 85 83 83 81 73 63 63 61 57 54 49 44 41 38 37 42 43 40 38 41 45 50 57 63 68 71 70 67 65 62 62 64 63 59 56 52 49 48 44 45 51 55 62 76 96
255 155 97 87 108 107 154 263 281 295 289 296 297 155 118 96 120 143 128 135 161 156 138 141 144 142 146 147 140 139 149 150 142 141 147 144 136 127 119 112 106 97 86 77 70 57 44 47 52 53 52 49 44 41 38 37 38 38 36 36 39 41 46 54 61 66 66 64 64 64 64 65 66 64 62 61 62 63 58 55 61 69 70 70 73 81
193 140 101 86 108 124 230 255 272 290 278 273 261 183 144 116 99 95 112 131 131 122 126 136 138 140 149 151 144 143 150 154 149 150 155 152 147 144 139 136 131 113 89 72 56 39 29 32 39 41 41 42 41 37 34 33 32 30 28 31 35 38 44 53 61 68 72 74 76 74 72 72 72 71 70 68 67 66 62 59 64 71 72 71 72 74
148 138 147 119 92 72 255 246 272 353 327 298 273 250 225 174 123 97 98 111 112 110 111 109 122 148 155 152 146 141 145 157 157 149 148 152 154 157 157 153 147 132 104 78 52 35 29 27 27 26 26 26 27 29 29 28 26 23 23 24 28 34 44 52 60 69 74 77 77 74 72 71 71 71 71 70 70 68 65 62 62 66 69 70 73 76
132 149 155 112 103 190 232 205 169 143 250 256 243 230 220 190 135 111 109 113 116 124 121 101 91 117 141 152 155 144 141 162 166 153 151 163 169 172 174 171 169 172 170 131 28 14 24 24 22 25 25 19 16 18 20 21 22 21 21 22 24 30 39 45 51 62 70 71 69 69 68 68 70 70 71 72 72 72 72 69 66 66 70 71 71 72
162 174 170 153 166 216 218 197 175 157 194 227 210 187 188 177 136 127 137 137 136 148 140 122 113 111 121 156 168 161 156 168 167 162 165 177 180 180 183 187 190 195 203 214 260 318 350 7 13 20 24 20 17 18 19 22 24 23 23 25 26 29 35 37 37 48 63 69 68 68 64 61 62 65 70 75 78 79 82 82 77 73 74 75 75 71